Time,TemperatureF,DewpointF,PressureIn,WindDirection,WindDirectionDegrees,WindSpeedMPH,WindSpeedGustMPH,Humidity,HourlyPrecipIn,Conditions,Clouds,dailyrainin,SoftwareType,DateUTC
2013-10-20 00:02:00,-999.0,-99.9,29.91,SE,133,3.0,6.0,-999,-99.99,,,-99.99,,2013-10-20 04:02:00,
2013-10-20 00:24:00,81.0,76.0,29.91,SSE,163,3.0,7.0,86,0.00,,,0.00,,2013-10-20 04:24:00,
2013-10-20 00:54:00,81.0,76.0,29.91,SSE,149,5.0,8.0,86,0.00,,,0.00,,2013-10-20 04:54:00,
2013-10-20 01:23:00,81.0,76.0,29.90,SE,138,6.0,10.0,86,0.00,,,0.00,,2013-10-20 05:23:00,
2013-10-20 01:43:00,81.0,76.0,29.90,SSE,153,5.0,9.0,86,0.00,,,0.00,,2013-10-20 05:43:00,
2013-10-20 01:52:00,82.0,77.0,29.90,SSE,167,7.0,9.0,85,0.00,,,0.00,,2013-10-20 05:52:00,
2013-10-20 02:22:00,82.0,77.0,29.88,SSE,153,7.0,9.0,85,0.00,,,0.00,,2013-10-20 06:22:00,
2013-10-20 02:52:00,82.0,77.0,29.88,South,172,7.0,10.0,86,0.00,,,0.00,,2013-10-20 06:52:00,
2013-10-20 03:22:00,82.0,77.0,29.86,SSE,163,9.0,12.0,85,0.00,,,0.00,,2013-10-20 07:22:00,
2013-10-20 03:32:00,82.0,77.0,29.86,SSE,163,9.0,12.0,85,0.00,,,0.00,,2013-10-20 07:32:00,
2013-10-20 03:42:00,82.0,77.0,29.86,SSE,163,9.0,12.0,85,0.00,,,0.00,,2013-10-20 07:42:00,
2013-10-20 03:52:00,82.0,77.0,29.85,SSE,149,7.0,12.0,85,0.00,,,0.00,,2013-10-20 07:52:00,
2013-10-20 04:22:00,82.0,77.0,29.85,South,171,7.0,11.0,84,0.00,,,0.00,,2013-10-20 08:22:00,
2013-10-20 04:42:00,82.0,77.0,29.85,SSE,158,7.0,10.0,85,0.00,,,0.00,,2013-10-20 08:42:00,
2013-10-20 04:52:00,82.0,77.0,29.85,SSE,153,6.0,10.0,85,0.00,,,0.00,,2013-10-20 08:52:00,
2013-10-20 05:21:00,82.0,77.0,29.86,SSE,149,5.0,10.0,86,0.00,,,0.00,,2013-10-20 09:21:00,
2013-10-20 05:43:00,82.0,77.0,29.86,SSE,163,7.0,10.0,86,0.00,,,0.00,,2013-10-20 09:43:00,
2013-10-20 05:53:00,82.0,77.0,29.86,SSE,167,8.0,11.0,86,0.00,,,0.00,,2013-10-20 09:53:00,
2013-10-20 06:23:00,82.0,77.0,29.86,SSE,153,6.0,11.0,85,0.00,,,0.00,,2013-10-20 10:23:00,
2013-10-20 06:53:00,82.0,77.0,29.87,SSE,148,7.0,10.0,86,0.00,,,0.00,,2013-10-20 10:53:00,
2013-10-20 07:22:00,82.0,77.0,29.88,SSW,201,5.0,10.0,86,0.00,,,0.00,,2013-10-20 11:22:00,
2013-10-20 07:43:00,82.0,77.0,29.88,SE,145,8.0,11.0,86,0.00,,,0.00,,2013-10-20 11:43:00,
2013-10-20 07:52:00,80.0,75.0,29.89,SSE,158,6.0,12.0,85,0.00,,,0.00,,2013-10-20 11:52:00,
2013-10-20 08:22:00,82.0,78.0,29.89,SW,215,7.0,12.0,88,0.00,,,0.00,,2013-10-20 12:22:00,
2013-10-20 08:42:00,82.0,78.0,29.89,South,189,7.0,12.0,87,0.00,,,0.00,,2013-10-20 12:42:00,
2013-10-20 08:52:00,82.0,77.0,29.90,SSW,210,9.0,15.0,85,0.00,,,0.00,,2013-10-20 12:52:00,
2013-10-20 09:11:00,83.0,78.0,29.90,SW,217,7.0,12.0,85,0.00,,,0.00,,2013-10-20 13:11:00,
2013-10-20 09:22:00,83.0,78.0,29.91,South,184,7.0,11.0,84,0.00,,,0.00,,2013-10-20 13:22:00,
2013-10-20 09:42:00,83.0,78.0,29.91,South,173,5.0,10.0,84,0.00,,,0.00,,2013-10-20 13:42:00,
2013-10-20 09:52:00,84.0,79.0,29.91,SE,127,5.0,8.0,85,0.00,,,0.00,,2013-10-20 13:52:00,
2013-10-20 10:22:00,85.0,79.0,29.92,ESE,123,4.0,6.0,82,0.00,,,0.00,,2013-10-20 14:22:00,
2013-10-20 10:52:00,85.0,79.0,29.92,SSE,158,4.0,6.0,82,0.00,,,0.00,,2013-10-20 14:52:00,
2013-10-20 11:22:00,86.0,79.0,29.93,SSW,204,4.0,6.0,80,0.00,,,0.00,,2013-10-20 15:22:00,
2013-10-20 11:54:00,87.0,79.0,29.93,South,183,5.0,8.0,77,0.00,,,0.00,,2013-10-20 15:54:00,
2013-10-20 12:24:00,87.0,79.0,29.93,SSW,198,5.0,8.0,78,0.00,,,0.00,,2013-10-20 16:24:00,
2013-10-20 12:43:00,87.0,78.0,29.93,SSW,199,4.0,8.0,76,0.00,,,0.00,,2013-10-20 16:43:00,
2013-10-20 12:54:00,87.0,79.0,29.93,SSW,200,5.0,8.0,77,0.00,,,0.00,,2013-10-20 16:54:00,
2013-10-20 13:23:00,87.0,79.0,29.91,SSW,202,4.0,7.0,77,0.00,,,0.00,,2013-10-20 17:23:00,
2013-10-20 13:42:00,86.0,78.0,29.91,SSW,207,2.0,7.0,78,0.00,,,0.00,,2013-10-20 17:42:00,
2013-10-20 13:52:00,86.0,78.0,29.91,SSW,203,4.0,7.0,78,0.00,,,0.00,,2013-10-20 17:52:00,
2013-10-20 14:22:00,86.0,79.0,29.90,SSW,198,5.0,8.0,79,0.00,,,0.00,,2013-10-20 18:22:00,
2013-10-20 14:42:00,87.0,80.0,29.89,SSW,202,5.0,8.0,80,0.00,,,0.00,,2013-10-20 18:42:00,
2013-10-20 14:52:00,86.0,79.0,29.88,South,190,6.0,8.0,80,0.00,,,0.00,,2013-10-20 18:52:00,
2013-10-20 15:22:00,86.0,79.0,29.88,South,190,4.0,9.0,81,0.00,,,0.00,,2013-10-20 19:22:00,
2013-10-20 15:42:00,86.0,79.0,29.87,West,260,4.0,8.0,80,0.00,,,0.00,,2013-10-20 19:42:00,
2013-10-20 15:52:00,85.0,78.0,29.87,South,174,5.0,9.0,80,0.00,,,0.00,,2013-10-20 19:52:00,
2013-10-20 16:22:00,86.0,79.0,29.87,SW,235,3.0,7.0,81,0.00,,,0.00,,2013-10-20 20:22:00,
2013-10-20 16:52:00,85.0,78.0,29.87,South,191,4.0,11.0,81,0.00,,,0.00,,2013-10-20 20:52:00,
2013-10-20 17:22:00,85.0,78.0,29.87,SSW,194,6.0,9.0,81,0.00,,,0.00,,2013-10-20 21:22:00,
2013-10-20 17:44:00,85.0,78.0,29.86,SW,220,3.0,7.0,81,0.00,,,0.00,,2013-10-20 21:44:00,
2013-10-20 17:54:00,86.0,79.0,29.87,WSW,258,7.0,10.0,80,0.00,,,0.00,,2013-10-20 21:54:00,
2013-10-20 18:23:00,85.0,78.0,29.88,West,278,2.0,5.0,80,0.00,,,0.00,,2013-10-20 22:23:00,
2013-10-20 18:43:00,85.0,79.0,29.88,NNE,13,7.0,12.0,83,0.00,,,0.00,,2013-10-20 22:43:00,
2013-10-20 18:53:00,82.0,77.0,29.89,NNE,31,11.0,21.0,84,0.01,,,0.01,,2013-10-20 22:53:00,
2013-10-20 19:22:00,79.0,75.0,29.89,East,86,4.0,8.0,88,0.67,,,0.67,,2013-10-20 23:22:00,
2013-10-20 19:43:00,79.0,75.0,29.89,SE,144,4.0,5.0,89,0.67,,,0.67,,2013-10-20 23:43:00,
2013-10-20 19:52:00,78.0,75.0,29.90,SSE,163,2.0,4.0,90,0.66,,,0.67,,2013-10-20 23:52:00,
2013-10-20 20:11:00,78.0,75.0,29.90,SSE,163,1.0,2.0,91,0.26,,,0.67,,2013-10-21 00:11:00,
2013-10-20 20:22:00,78.0,75.0,29.90,SSE,163,1.0,3.0,91,0.00,,,0.67,,2013-10-21 00:22:00,
2013-10-20 20:43:00,78.0,75.0,29.90,SSE,163,2.0,4.0,92,0.00,,,0.67,,2013-10-21 00:43:00,
2013-10-20 20:52:00,79.0,77.0,29.90,South,174,0.0,1.0,93,0.00,,,0.67,,2013-10-21 00:52:00,
2013-10-20 21:22:00,79.0,77.0,29.91,South,174,0.0,1.0,93,0.00,,,0.67,,2013-10-21 01:22:00,
2013-10-20 21:42:00,79.0,77.0,29.91,NW,305,1.0,3.0,93,0.00,,,0.67,,2013-10-21 01:42:00,
2013-10-20 21:52:00,79.0,77.0,29.91,North,353,4.0,5.0,94,0.00,,,0.67,,2013-10-21 01:52:00,
2013-10-20 22:22:00,80.0,78.0,29.92,North,1,3.0,4.0,94,0.00,,,0.67,,2013-10-21 02:22:00,
2013-10-20 22:42:00,80.0,78.0,29.93,North,5,3.0,4.0,94,0.00,,,0.67,,2013-10-21 02:42:00,
2013-10-20 22:52:00,80.0,78.0,29.93,North,5,2.0,4.0,94,0.00,,,0.67,,2013-10-21 02:52:00,
2013-10-20 23:22:00,80.0,78.0,29.94,North,5,0.0,1.0,94,0.00,,,0.67,,2013-10-21 03:22:00,
2013-10-20 23:45:00,79.0,77.0,29.94,North,5,1.0,1.0,94,0.00,,,0.67,,2013-10-21 03:45:00,
2013-10-20 23:54:00,79.0,77.0,29.94,North,5,1.0,2.0,94,0.00,,,0.67,,2013-10-21 03:54:00,